Zurück zum Katalog

THORAD AGENA D DEB

AktivPO
NORAD 14466·DEBRIS·🇺🇸 United States

Gestartet Apr 8, 1970 von Vandenberg Space Force Base

Loading…

Nächste Überflüge (nächste 24 Stunden)

TLE

AktuellSource: Space-Track

Epoche: Sep 14, 2026, 20:14 UTC

1 14466U 70025NS  26257.84332179  .00004988  00000-0  10188-2 0  9993
2 14466  99.9703 107.0711 0044061   5.9704 354.2007 14.60873343325502

Verfolge THORAD AGENA D DEB in Echtzeit mit AllMySat

Download on the App Store